Hourly Weather Adamivka

Today, 23 April, Friday

Time Temperature Precipitation Wind Pressure Humidity
00:00 +5°C° 0.2 mm 5 mps 738 mmHg 89%
01:00 +5°C° 0.2 mm 4 mps 738 mmHg 88%
02:00 +5°C° 0 mm 3 mps 738 mmHg 88%
03:00 +5°C° 0 mm 3 mps 738 mmHg 88%
04:00 +4°C° 0 mm 3 mps 738 mmHg 88%
05:00 +4°C° 0 mm 3 mps 738 mmHg 87%
06:00 +4°C° 0 mm 3 mps 739 mmHg 81%
07:00 +5°C° 0 mm 3 mps 739 mmHg 74%
08:00 +5°C° 0 mm 3 mps 739 mmHg 68%
09:00 +7°C° 0 mm 3 mps 739 mmHg 63%
10:00 +7°C° 0 mm 3 mps 740 mmHg 58%
11:00 +8°C° 0 mm 3 mps 740 mmHg 53%
12:00 +8°C° 0 mm 4 mps 740 mmHg 50%
13:00 +8°C° 0 mm 4 mps 740 mmHg 47%
14:00 +10°C° 0 mm 4 mps 739 mmHg 44%
15:00 +10°C° 0.1 mm 4 mps 739 mmHg 46%
16:00 +8°C° 0.1 mm 5 mps 739 mmHg 48%
17:00 +8°C° 0.1 mm 5 mps 739 mmHg 50%
18:00 +7°C° 0.1 mm 4 mps 739 mmHg 59%
19:00 +7°C° 0.1 mm 3 mps 740 mmHg 67%
20:00 +5°C° 0.1 mm 2 mps 740 mmHg 75%
21:00 +4°C° 0 mm 3 mps 740 mmHg 76%
22:00 +3°C° 0 mm 3 mps 740 mmHg 77%
23:00 +3°C° 0 mm 3 mps 741 mmHg 78%

Tomorrow, 24 April, Saturday

Time Temperature Precipitation Wind Pressure Humidity
00:00 +2°C° 0 mm 3 mps 741 mmHg 79%
01:00 +2°C° 0 mm 3 mps 741 mmHg 81%
02:00 +1°C° 0 mm 4 mps 741 mmHg 82%
03:00 0°C° 0 mm 4 mps 741 mmHg 85%
04:00 0°C° 0 mm 4 mps 741 mmHg 88%
05:00 0°C° 0 mm 5 mps 741 mmHg 90%
06:00 0°C° 0.1 mm 5 mps 741 mmHg 85%
07:00 +1°C° 0.1 mm 4 mps 742 mmHg 79%
08:00 +1°C° 0.1 mm 4 mps 742 mmHg 73%
09:00 +3°C° 0 mm 5 mps 742 mmHg 63%
10:00 +5°C° 0 mm 5 mps 742 mmHg 53%
11:00 +5°C° 0 mm 6 mps 742 mmHg 43%
12:00 +7°C° 0 mm 6 mps 742 mmHg 43%
13:00 +7°C° 0 mm 6 mps 742 mmHg 43%
14:00 +7°C° 0 mm 6 mps 742 mmHg 44%
15:00 +8°C° 0 mm 5 mps 742 mmHg 43%
16:00 +8°C° 0 mm 5 mps 741 mmHg 43%
17:00 +8°C° 0 mm 5 mps 741 mmHg 42%
18:00 +7°C° 0 mm 4 mps 741 mmHg 50%
19:00 +5°C° 0 mm 3 mps 741 mmHg 57%
20:00 +5°C° 0 mm 2 mps 742 mmHg 64%
21:00 +5°C° 0 mm 2 mps 741 mmHg 67%
22:00 +5°C° 0 mm 2 mps 741 mmHg 69%
23:00 +4°C° 0 mm 2 mps 741 mmHg 72%

Day after tomorrow, 25 April, Sunday

Time Temperature Precipitation Wind Pressure Humidity
00:00 +4°C° 0 mm 3 mps 741 mmHg 74%
01:00 +4°C° 0 mm 3 mps 741 mmHg 76%
02:00 +4°C° 0 mm 3 mps 740 mmHg 78%
03:00 +4°C° 0 mm 3 mps 740 mmHg 79%
04:00 +4°C° 0 mm 3 mps 740 mmHg 80%
05:00 +4°C° 0 mm 3 mps 740 mmHg 81%
06:00 +4°C° 0.5 mm 3 mps 740 mmHg 85%
07:00 +3°C° 0.5 mm 3 mps 740 mmHg 89%
08:00 +3°C° 0.5 mm 3 mps 740 mmHg 93%
09:00 +4°C° 0.2 mm 4 mps 740 mmHg 88%
10:00 +4°C° 0.2 mm 4 mps 740 mmHg 84%
11:00 +5°C° 0.2 mm 5 mps 740 mmHg 79%
12:00 +6°C° 0 mm 5 mps 740 mmHg 69%
13:00 +6°C° 0 mm 5 mps 740 mmHg 60%
14:00 +7°C° 0 mm 5 mps 740 mmHg 51%
15:00 +7°C° 0 mm 5 mps 739 mmHg 48%
16:00 +7°C° 0 mm 5 mps 739 mmHg 45%
17:00 +7°C° 0 mm 5 mps 739 mmHg 42%
18:00 +5°C° 0 mm 4 mps 739 mmHg 48%
19:00 +4°C° 0 mm 3 mps 740 mmHg 55%
20:00 +2°C° 0 mm 3 mps 740 mmHg 62%
21:00 +3°C° 0 mm 2 mps 740 mmHg 63%
22:00 +2°C° 0 mm 2 mps 740 mmHg 64%
23:00 +3°C° 0 mm 1 mps 740 mmHg 65%

26 April, Monday

Time Temperature Precipitation Wind Pressure Humidity
00:00 +3°C° 0 mm 1 mps 740 mmHg 66%
01:00 +1°C° 0 mm 2 mps 740 mmHg 66%
02:00 +1°C° 0 mm 2 mps 740 mmHg 67%
03:00 +1°C° 0 mm 2 mps 739 mmHg 69%
04:00 -1°C° 0 mm 2 mps 739 mmHg 71%
05:00 -1°C° 0 mm 2 mps 739 mmHg 73%
06:00 +1°C° 0 mm 3 mps 739 mmHg 68%
07:00 +1°C° 0 mm 4 mps 739 mmHg 63%
08:00 +4°C° 0 mm 4 mps 739 mmHg 57%
09:00 +5°C° 0 mm 5 mps 739 mmHg 51%
10:00 +5°C° 0 mm 6 mps 739 mmHg 45%
11:00 +5°C° 0 mm 6 mps 739 mmHg 39%
12:00 +6°C° 0 mm 7 mps 739 mmHg 39%
13:00 +6°C° 0 mm 7 mps 739 mmHg 40%
14:00 +6°C° 0 mm 7 mps 738 mmHg 40%
15:00 +7°C° 0 mm 6 mps 738 mmHg 41%
16:00 +7°C° 0 mm 6 mps 738 mmHg 41%
17:00 +6°C° 0 mm 5 mps 738 mmHg 42%
18:00 +5°C° 0 mm 4 mps 738 mmHg 46%
19:00 +5°C° 0 mm 2 mps 738 mmHg 50%
20:00 +5°C° 0 mm 1 mps 738 mmHg 55%
21:00 +5°C° 0 mm 1 mps 738 mmHg 55%
22:00 +3°C° 0 mm 0 mps 738 mmHg 55%
23:00 +3°C° 0 mm 0 mps 738 mmHg 55%

27 April, Tuesday

Time Temperature Precipitation Wind Pressure Humidity
00:00 +4°C° 0 mm 1 mps 737 mmHg 57%
01:00 +3°C° 0 mm 2 mps 737 mmHg 58%
02:00 +3°C° 0 mm 2 mps 737 mmHg 60%
03:00 +2°C° 0 mm 2 mps 737 mmHg 68%
04:00 +2°C° 0 mm 2 mps 737 mmHg 76%
05:00 +1°C° 0 mm 2 mps 737 mmHg 84%
06:00 +1°C° 0 mm 3 mps 737 mmHg 78%
07:00 +3°C° 0 mm 3 mps 738 mmHg 73%
08:00 +4°C° 0 mm 4 mps 738 mmHg 67%
09:00 +5°C° 0 mm 3 mps 738 mmHg 59%
10:00 +7°C° 0 mm 3 mps 738 mmHg 51%
11:00 +8°C° 0 mm 3 mps 738 mmHg 43%
12:00 +9°C° 0 mm 3 mps 738 mmHg 41%
13:00 +10°C° 0 mm 3 mps 737 mmHg 40%
14:00 +12°C° 0 mm 2 mps 737 mmHg 38%
15:00 +12°C° 0 mm 2 mps 737 mmHg 38%
16:00 +12°C° 0 mm 2 mps 737 mmHg 38%
17:00 +12°C° 0 mm 1 mps 737 mmHg 38%
18:00 +9°C° 0 mm 2 mps 737 mmHg 44%
19:00 +8°C° 0 mm 2 mps 737 mmHg 49%
20:00 +7°C° 0 mm 2 mps 737 mmHg 55%
21:00 +5°C° 0 mm 3 mps 737 mmHg 58%
22:00 +4°C° 0 mm 3 mps 736 mmHg 62%
23:00 +4°C° 0 mm 3 mps 736 mmHg 65%

28 April, Wednesday

Time Temperature Precipitation Wind Pressure Humidity
00:00 +4°C° 0 mm 4 mps 736 mmHg 66%
01:00 +4°C° 0 mm 4 mps 736 mmHg 67%
02:00 +3°C° 0 mm 5 mps 735 mmHg 68%
03:00 +3°C° 0 mm 5 mps 735 mmHg 69%
04:00 +3°C° 0 mm 6 mps 735 mmHg 71%
05:00 +3°C° 0 mm 7 mps 734 mmHg 72%
06:00 +3°C° 0 mm 7 mps 734 mmHg 72%
07:00 +4°C° 0 mm 8 mps 734 mmHg 73%
08:00 +4°C° 0 mm 8 mps 734 mmHg 73%
09:00 +5°C° 0 mm 9 mps 734 mmHg 72%
10:00 +5°C° 0 mm 9 mps 734 mmHg 72%
11:00 +6°C° 0 mm 9 mps 734 mmHg 71%
12:00 +6°C° 0 mm 9 mps 733 mmHg 74%
13:00 +6°C° 0 mm 9 mps 733 mmHg 78%
14:00 +6°C° 0 mm 8 mps 733 mmHg 82%
15:00 +6°C° 0 mm 8 mps 732 mmHg 81%
16:00 +7°C° 0 mm 8 mps 732 mmHg 80%
17:00 +9°C° 0 mm 8 mps 732 mmHg 79%
18:00 +8°C° 0 mm 7 mps 732 mmHg 81%
19:00 +8°C° 0 mm 7 mps 731 mmHg 84%
20:00 +8°C° 0 mm 7 mps 731 mmHg 86%
21:00 +8°C° 0 mm 7 mps 731 mmHg 88%
22:00 +7°C° 0 mm 6 mps 731 mmHg 90%
23:00 +7°C° 0 mm 6 mps 731 mmHg 92%
Show more